Wind_Speed
6 7 8 10 13 12 14 18 20 16 10 7 10 12 11 9 10 13 14 12 10 10 9 9 9 8 8 8 8 8 9 10 10 11 12 13 13 14 15 14 13 13 14 13 13 13 11 11 11 12 11 10 9 9 8 9 9 7 7 6 6 6 5 5 6 6 4 5 5 5 8 8 7 8 9 10 12 12 11 12 13 13 12 12 14
6 6 6 7 10 11 13 17 19 16 11 8 11 14 13 11 10 11 14 13 11 11 10 9 10 9 9 9 9 9 10 11 11 12 12 13 13 14 14 12 10 11 12 10 10 10 9 8 8 8 9 8 8 7 6 6 6 5 5 5 4 5 5 5 4 4 3 5 5 5 9 8 3 7 11 10 11 11 9 11 13 12 12 11 12
6 7 7 6 7 8 11 15 17 15 12 10 11 15 15 14 11 10 12 14 13 11 10 10 10 10 10 10 10 10 10 11 11 11 11 11 11 12 12 11 10 10 9 8 7 8 8 7 6 6 7 7 8 7 6 6 5 4 4 4 4 5 5 5 4 3 3 3 5 3 7 9 4 7 12 12 13 12 9 10 12 12 14 14 12
5 6 6 6 6 6 9 13 16 15 13 11 11 15 18 17 14 11 11 12 13 12 11 11 11 10 10 10 10 11 11 11 11 10 10 10 10 9 9 10 10 9 8 7 7 7 6 5 5 6 6 6 7 6 6 7 5 4 4 4 4 4 4 5 4 3 2 1 2 0 5 8 6 7 10 10 13 14 12 12 13 13 16 16 16
4 4 5 5 6 6 8 11 14 14 14 12 11 15 20 19 16 13 11 11 13 13 12 12 12 11 11 11 11 11 10 10 10 9 9 9 9 9 9 9 9 9 9 9 9 9 7 6 5 6 6 5 5 5 5 6 5 4 4 3 2 2 1 2 2 1 1 1 2 4 5 4 5 9 10 8 9 10 9 11 13 15 18 20 20
4 4 4 5 5 6 8 9 11 12 13 12 11 15 20 20 17 13 11 12 13 13 13 13 13 12 12 12 12 11 11 10 10 9 9 9 9 9 9 9 9 9 9 9 9 9 9 8 8 8 8 7 6 6 7 7 6 5 4 3 3 2 2 2 1 1 1 2 3 5 6 6 6 8 10 12 12 10 9 11 12 12 16 20 22
4 4 4 4 4 5 6 7 9 10 10 11 13 16 19 19 18 15 12 12 13 14 14 13 13 13 13 13 13 12 12 11 10 10 9 9 9 9 9 9 9 9 8 8 7 7 7 8 9 9 9 9 8 8 9 9 8 6 5 5 4 4 3 2 2 2 2 2 3 4 5 7 9 7 8 12 12 9 11 15 15 13 14 19 21
4 4 3 3 3 3 4 6 8 8 9 11 14 17 18 18 17 17 16 14 13 14 14 14 14 15 15 15 14 14 13 12 12 11 10 10 10 10 9 8 8 8 8 7 8 7 7 8 9 9 10 11 10 9 9 8 7 7 7 6 6 6 5 4 4 4 4 4 5 5 5 7 9 9 9 10 9 8 13 19 19 17 17 20 20
5 3 2 2 3 4 5 7 7 6 7 9 12 15 17 17 16 17 18 17 15 14 14 15 16 17 17 17 16 16 15 14 15 14 14 14 13 12 11 10 9 9 8 8 10 11 11 11 11 11 12 12 12 11 11 10 8 8 10 10 8 8 6 5 5 6 6 7 8 7 9 10 11 11 10 9 11 15 19 19 19 18 19 21 19
5 4 3 1 1 3 4 5 4 5 6 7 8 11 14 16 16 16 17 18 17 16 15 16 18 19 19 20 20 19 18 18 18 18 18 18 17 15 12 11 11 12 12 13 14 14 13 14 14 14 14 14 14 14 14 14 13 13 14 14 11 9 8 6 6 7 7 8 9 8 9 10 11 11 11 10 14 19 19 17 17 18 19 20 19
4 3 2 1 0 0 2 2 3 5 6 7 7 9 10 12 14 15 16 16 17 17 17 18 20 20 20 22 23 24 23 22 20 20 21 21 21 18 14 11 11 12 14 15 15 15 15 14 14 15 16 17 16 16 16 17 18 17 17 16 14 12 9 7 7 8 8 9 8 8 8 9 11 12 11 11 14 18 19 19 18 17 16 19 21
4 3 2 1 0 0 2 3 4 5 7 8 8 9 10 11 13 14 16 16 17 17 19 20 21 21 21 23 24 25 27 26 24 22 23 24 24 22 18 15 13 13 14 15 16 16 14 11 10 13 16 16 16 17 17 17 18 18 17 17 15 13 11 11 10 9 10 10 9 9 9 9 11 12 14 17 20 22 21 19 16 16 18 21 22
5 4 3 2 0 1 2 3 5 6 7 8 9 9 10 12 14 15 15 16 16 17 18 19 20 21 21 22 23 24 26 29 30 28 25 24 25 24 21 19 17 16 16 17 18 16 11 8 9 11 14 14 14 16 17 16 16 16 18 18 16 13 14 15 14 13 13 11 9 8 9 11 13 15 19 23 22 21 21 19 18 20 23 24 25
5 4 3 3 1 1 1 2 3 5 7 9 10 10 11 12 13 14 15 15 16 16 17 18 19 21 22 22 22 23 25 27 30 30 28 26 26 24 22 21 20 18 16 17 16 14 12 11 10 9 11 13 13 14 15 14 13 14 16 17 15 14 15 15 15 15 15 13 12 11 13 16 18 20 23 23 20 21 22 22 23 25 27 28 30
5 4 4 4 4 3 2 2 3 4 5 7 9 10 12 13 14 14 13 13 14 16 17 17 18 19 20 20 19 21 22 23 25 28 28 27 28 27 25 22 19 16 16 16 14 13 12 12 10 10 11 12 11 12 13 12 12 12 14 15 14 15 15 15 14 15 15 15 15 15 17 21 22 22 22 21 22 23 24 25 27 29 29 28 26
5 5 5 5 6 6 5 6 5 5 5 6 7 8 10 12 13 14 14 14 15 18 19 19 19 18 17 17 17 18 20 20 21 23 24 25 26 25 22 19 16 15 15 14 13 12 11 10 10 11 11 10 9 10 11 10 10 10 11 12 13 13 14 14 15 16 17 17 17 18 21 22 22 21 21 22 23 24 25 27 27 24 22 21 20
5 5 5 5 6 7 7 8 9 8 8 7 7 7 8 9 10 12 13 13 14 16 17 19 20 19 18 17 16 17 18 17 18 19 20 22 22 20 16 15 16 15 14 13 13 12 11 10 9 9 8 8 8 8 8 8 8 8 9 10 12 13 14 15 16 18 18 19 20 21 22 22 21 21 22 23 23 24 26 26 24 19 18 19 20
6 6 6 6 6 6 8 9 10 11 11 9 9 9 9 9 10 10 11 11 10 11 13 15 18 19 19 18 17 17 17 17 18 19 19 19 17 15 13 13 14 15 14 13 12 11 10 9 9 8 8 8 8 7 7 7 7 8 10 11 12 14 16 17 18 19 20 21 22 22 21 21 22 22 23 24 24 25 25 25 23 21 19 19 19
11 10 10 9 8 8 8 9 10 11 11 11 11 11 11 11 11 11 11 10 10 10 10 11 14 16 17 18 17 16 16 16 17 18 18 17 15 13 12 12 14 13 13 12 11 11 10 9 9 9 8 8 8 7 8 8 9 10 10 9 9 11 15 17 17 19 20 20 21 21 21 22 23 24 25 26 25 24 24 24 23 21 19 18 18
17 16 15 14 13 12 11 11 12 12 12 13 14 14 13 12 12 13 11 10 10 10 10 10 12 14 15 15 15 15 16 17 19 19 18 16 14 12 11 11 12 12 12 12 11 11 11 10 9 8 7 7 7 7 8 9 10 11 10 8 8 10 14 17 16 16 18 18 19 21 21 22 23 24 24 24 24 23 23 22 20 18 17 18 18
22 21 20 19 18 17 16 16 17 16 15 16 16 16 15 14 14 14 13 12 12 12 12 13 13 14 14 13 14 16 18 20 20 19 17 16 15 14 12 12 12 12 12 11 11 10 10 9 7 7 6 7 7 8 9 10 11 12 11 10 11 12 14 16 15 15 17 18 18 19 18 18 18 17 17 18 18 19 19 17 14 14 15 17 19
25 25 24 24 23 22 21 21 22 21 19 18 17 17 17 17 17 16 14 14 15 14 13 14 15 15 14 14 15 16 18 19 18 17 17 16 15 14 13 13 13 13 12 12 11 9 8 7 7 7 7 7 8 9 9 10 10 11 11 11 12 13 13 14 15 15 15 15 15 15 14 13 13 13 13 14 15 18 17 13 11 13 15 15 18
27 27 27 27 27 26 25 24 24 25 25 23 21 19 18 19 19 18 16 16 16 16 17 19 19 18 17 17 17 17 18 18 17 16 16 15 15 15 14 13 13 12 11 11 9 8 8 7 7 8 7 7 8 8 8 9 9 10 10 11 11 12 12 13 14 14 14 14 13 12 12 11 12 13 14 15 17 20 18 13 13 15 15 15 16
29 29 29 29 28 28 28 28 27 27 27 26 24 22 21 22 21 20 19 19 18 18 20 21 21 22 22 21 20 19 19 18 17 17 16 15 15 14 13 13 13 12 11 10 9 9 8 7 7 7 7 7 7 7 8 8 9 9 10 10 11 11 11 11 11 12 12 11 10 10 11 12 13 14 15 16 18 21 18 15 14 15 15 15 15
30 30 30 30 29 29 29 29 29 28 27 26 25 22 22 23 24 23 21 19 18 19 21 22 22 24 25 24 23 21 19 18 17 16 15 15 14 14 13 13 13 12 11 11 10 9 8 7 8 8 8 8 8 8 8 8 9 9 9 9 9 9 9 9 9 9 8 8 9 11 12 12 13 15 15 14 16 17 15 13 13 13 13 14 14
29 30 30 30 31 30 30 30 29 29 28 26 25 23 22 21 22 24 25 24 21 19 20 21 21 23 24 24 23 21 19 18 16 15 14 14 13 13 14 14 14 12 12 12 11 10 9 9 8 8 8 8 8 8 8 8 8 8 8 8 8 8 8 7 7 7 7 8 10 12 13 13 15 16 14 13 14 14 12 12 13 13 13 13 14
26 28 29 29 29 29 29 29 29 28 26 24 23 23 22 21 20 23 27 30 29 28 26 24 22 20 22 25 23 21 20 18 16 15 14 12 13 13 13 14 14 14 14 14 13 11 10 9 9 8 8 7 7 7 7 7 7 6 7 7 7 7 8 8 8 9 9 10 12 14 14 14 15 15 14 13 13 13 12 13 13 13 13 13 14
21 23 24 25 26 26 25 26 28 28 28 27 25 23 22 22 22 23 25 28 31 34 34 32 27 23 24 27 25 21 21 19 16 12 10 9 11 12 13 14 15 16 16 16 14 11 10 9 9 8 7 6 6 5 5 5 6 6 6 6 7 7 8 9 9 10 10 12 14 15 15 13 12 13 13 13 13 12 12 13 13 14 14 13 14
19 20 19 21 23 24 23 24 25 26 27 27 26 25 24 24 22 21 22 24 28 33 35 35 33 28 26 27 25 22 21 18 13 9 9 10 12 13 13 16 17 17 16 14 12 11 10 9 8 7 6 6 5 4 4 5 6 6 6 5 4 4 6 7 7 8 10 14 16 16 14 12 12 12 12 12 12 12 12 13 13 14 13 13 14
20 20 19 18 19 20 21 21 21 22 24 25 25 25 28 31 29 25 22 23 27 31 32 32 33 32 28 24 21 18 15 13 11 10 11 12 13 12 13 15 15 14 14 12 10 9 9 9 8 8 7 7 5 5 5 5 4 4 5 5 4 4 6 7 7 9 13 17 18 15 12 12 13 12 12 13 13 13 13 13 13 13 14 14 15
20 20 19 19 18 18 20 21 20 20 21 23 24 25 27 31 34 32 28 26 27 30 30 27 28 31 30 25 20 17 15 15 15 13 14 16 16 15 14 14 13 12 12 10 9 9 9 9 9 9 8 7 6 6 5 4 3 2 3 3 4 5 7 8 9 12 15 17 16 13 11 12 12 12 12 13 14 14 14 13 13 13 13 14 15
20 21 20 20 20 19 19 20 21 21 21 22 23 24 24 25 27 30 31 29 27 28 28 25 24 26 28 27 24 22 21 20 19 17 18 20 20 17 15 14 13 12 11 9 9 9 10 10 10 9 8 7 6 6 5 4 4 3 2 2 3 5 6 8 10 13 16 17 15 11 10 11 12 12 12 13 13 14 14 13 13 14 14 15 16
22 22 22 22 23 22 20 19 20 21 22 22 22 24 25 23 22 25 28 28 26 26 28 29 28 29 30 29 28 27 26 24 23 22 22 25 23 19 17 15 14 13 12 10 10 11 11 10 9 8 7 6 6 6 4 4 4 3 3 2 3 5 7 9 11 14 16 16 13 11 11 12 12 12 12 12 12 14 14 14 14 15 15 16 16
25 24 24 24 24 23 21 20 18 18 20 21 21 23 25 23 21 21 23 25 25 24 24 27 29 29 30 30 30 29 28 29 28 26 27 28 26 21 19 17 15 14 13 12 12 12 11 10 9 7 7 6 6 5 5 5 4 3 3 3 3 4 7 9 10 13 16 15 11 11 12 12 11 12 12 12 13 14 13 13 14 15 16 16 16
26 26 27 27 26 25 24 22 19 17 18 19 20 22 24 23 22 20 20 21 23 22 21 24 26 22 20 22 25 26 28 30 30 29 30 31 27 22 20 19 18 17 16 14 13 12 11 10 9 8 7 7 6 6 6 5 4 3 2 3 3 5 7 9 11 14 17 14 10 11 12 11 11 12 12 12 14 14 14 14 16 17 17 17 18
26 26 26 26 25 25 25 25 22 18 17 17 18 20 22 22 22 20 19 19 19 19 21 26 26 22 20 21 19 17 19 24 27 29 31 29 25 21 20 19 19 19 18 15 13 13 11 10 9 8 7 7 6 6 6 5 3 3 3 3 4 5 7 9 11 14 15 12 10 11 12 10 11 11 11 12 14 14 14 15 17 19 19 19 19
26 26 25 24 22 20 21 23 22 20 18 18 18 18 19 20 20 20 19 18 16 15 18 22 21 21 24 25 20 15 14 19 23 25 26 24 22 20 19 19 19 20 18 15 14 13 12 10 10 9 8 7 6 6 5 5 3 3 4 3 4 5 7 9 12 15 15 11 10 12 12 11 11 12 12 13 15 15 15 16 17 19 19 19 19
23 22 20 18 18 16 16 18 19 19 18 18 18 18 18 18 19 19 18 16 15 14 15 15 14 15 19 21 22 22 22 22 23 24 25 24 23 21 18 18 19 18 17 16 14 13 11 10 10 9 8 8 7 6 5 4 3 3 3 3 4 6 7 9 12 14 14 12 11 13 12 11 11 12 12 14 16 16 16 16 16 18 19 19 19
17 15 11 10 10 12 13 14 15 14 14 15 16 17 17 16 17 18 17 15 14 14 15 15 15 14 13 13 18 24 27 26 25 25 25 26 25 21 17 17 18 17 16 16 14 13 11 11 9 9 9 8 7 6 5 4 3 3 3 3 4 6 7 8 9 10 11 11 11 12 12 11 12 12 13 14 15 16 15 15 16 17 19 20 20
14 12 8 6 6 8 10 11 11 11 11 11 13 16 17 16 16 17 16 15 15 16 16 15 13 13 13 13 15 20 25 26 25 24 27 29 26 20 16 17 18 18 17 16 14 13 11 9 9 9 10 9 8 6 5 4 2 2 3 3 4 6 7 7 8 11 13 14 12 11 11 12 12 13 13 14 16 17 16 16 16 17 20 21 21
13 13 10 7 6 6 7 9 11 10 9 8 9 12 14 15 14 14 14 13 14 15 15 13 13 15 18 17 18 22 26 28 28 29 31 30 24 20 18 19 19 19 17 15 13 11 9 8 9 10 9 9 8 6 4 3 1 1 2 3 5 6 6 7 9 12 15 16 15 14 14 15 15 15 15 17 19 18 16 15 15 16 19 20 21
12 12 10 7 4 4 4 4 5 5 5 6 6 7 8 11 12 13 14 14 14 14 14 16 19 21 20 18 21 25 27 28 30 31 29 26 24 22 22 21 19 18 15 13 10 9 8 9 10 10 9 8 7 5 3 2 1 1 2 4 5 6 6 7 9 12 14 16 18 18 18 18 17 16 16 17 18 17 16 15 15 16 18 20 21
11 10 9 7 6 4 4 2 2 3 3 5 6 6 6 9 12 13 15 15 14 14 16 17 18 17 14 16 23 26 22 23 30 31 26 23 25 25 23 21 19 16 13 11 9 9 9 10 10 9 9 10 9 6 4 3 3 1 3 5 6 6 6 7 9 12 14 15 18 20 20 19 18 16 15 15 17 18 17 15 14 15 17 20 21
11 10 9 8 7 5 4 5 6 6 7 8 8 9 9 9 10 10 9 10 9 9 11 10 9 9 10 14 22 24 21 22 28 30 26 26 27 26 22 20 17 14 12 11 10 10 10 11 11 10 9 9 9 7 5 4 3 1 4 6 6 6 7 7 9 11 13 15 18 20 20 20 19 17 15 16 17 18 16 14 14 16 18 20 20
13 11 9 9 8 6 6 7 8 9 10 8 8 9 10 9 7 7 7 7 6 5 6 6 6 8 10 12 18 23 22 21 23 25 25 26 26 23 20 17 15 13 11 10 10 11 11 10 10 10 8 6 6 6 5 3 1 2 5 6 6 7 8 8 9 11 13 15 17 19 20 20 20 18 18 18 18 17 16 15 15 16 18 19 19
13 12 10 8 7 6 7 7 7 8 7 6 6 8 8 7 5 4 3 2 3 3 3 3 4 7 10 13 17 22 21 18 21 25 27 26 23 20 17 15 13 12 11 10 9 10 10 8 7 7 6 6 6 6 4 1 2 4 5 6 7 8 8 8 9 10 12 14 17 19 20 20 20 20 19 18 17 16 16 16 16 17 18 18 17
14 12 11 9 7 6 6 4 3 3 3 4 5 6 6 5 3 1 2 1 2 2 2 3 5 8 10 14 18 20 20 21 25 27 27 24 21 18 16 14 12 11 10 8 8 9 9 7 6 6 6 6 5 4 2 0 2 4 5 6 7 8 9 9 9 10 12 14 16 18 19 20 20 21 19 16 15 16 16 16 16 18 18 16 15
17 14 13 11 8 7 6 5 5 3 2 1 1 1 3 4 4 2 1 2 4 4 4 5 8 11 14 17 21 23 24 26 27 26 24 22 19 16 14 12 11 10 9 8 7 7 8 7 6 6 6 5 5 3 1 1 2 3 5 6 7 8 9 10 10 10 11 13 15 17 18 19 20 21 19 15 14 15 15 15 17 18 17 14 13
21 19 18 15 11 9 7 5 4 4 4 3 2 2 3 4 6 6 6 7 7 7 9 13 16 18 20 23 25 25 26 27 26 24 21 19 17 14 12 11 10 9 8 8 7 7 7 7 6 6 5 5 4 2 1 1 1 2 4 6 7 8 9 10 11 11 11 12 14 16 17 18 19 20 18 15 14 15 15 15 17 18 16 13 13
20 22 22 21 19 16 13 11 9 8 6 6 6 7 8 9 10 11 12 13 14 15 17 21 23 23 24 25 26 26 25 24 23 21 19 17 15 13 11 9 8 8 8 7 7 7 7 6 5 5 5 4 3 2 1 1 1 2 4 5 6 7 9 11 11 11 11 12 13 15 16 16 17 19 17 14 13 15 14 14 15 16 15 13 13
14 17 20 22 22 22 22 20 19 18 16 15 15 16 16 17 17 18 20 20 21 21 21 22 22 23 24 25 25 23 22 20 19 18 17 16 13 11 9 7 7 8 8 8 8 8 7 6 5 5 5 5 4 2 2 2 2 3 4 5 6 7 8 10 11 12 11 11 12 14 15 16 17 18 17 15 13 14 14 13 14 14 13 13 13
Wind_Direction
205 216 221 231 241 234 222 222 221 221 233 242 221 202 188 177 163 146 140 142 144 146 148 149 150 149 148 148 146 143 140 138 137 134 133 132 131 131 127 121 122 123 123 126 127 128 128 127 128 126 123 121 118 113 115 119 115 110 106 98 101 106 100 109 124 121 91 63 66 47 30 35 33 18 13 7 2 2 1 357 357 359 357 345 340
181 189 189 206 225 226 222 222 221 223 229 227 214 208 199 188 179 163 153 151 151 151 152 150 149 149 147 148 147 146 145 145 144 141 141 140 137 134 129 126 128 127 123 123 125 129 131 132 135 135 134 132 126 126 129 121 114 113 112 105 106 110 106 110 123 124 83 38 39 29 19 29 21 352 360 1 360 3 355 347 350 349 346 343 333
170 169 170 189 205 208 213 219 222 224 225 222 220 218 211 198 193 185 169 162 160 160 161 159 156 155 153 153 154 155 156 156 153 150 149 148 146 144 140 139 140 134 127 126 129 132 133 136 144 146 147 143 141 151 151 136 134 133 124 124 126 119 115 117 113 121 120 45 39 26 355 4 4 342 349 348 347 354 347 337 342 338 336 340 333
160 160 167 180 183 190 209 218 222 223 224 227 228 227 221 209 200 198 188 178 172 170 173 171 166 165 164 164 166 168 168 166 163 161 160 158 156 156 154 154 154 150 145 148 153 150 144 147 151 149 150 150 149 157 156 147 147 139 127 125 128 128 119 116 112 114 139 86 52 288 320 344 343 330 342 344 339 343 343 335 333 327 324 329 328
152 157 169 175 175 188 208 219 223 227 233 239 236 230 226 218 206 201 203 199 186 178 180 180 176 176 176 178 181 181 180 179 177 174 173 170 168 168 169 170 171 169 170 172 173 170 165 169 182 177 167 159 156 162 165 160 158 155 143 134 140 152 92 91 112 104 142 195 283 298 307 326 318 316 327 332 329 329 329 328 327 322 320 323 324
124 137 160 170 179 191 201 215 226 232 236 234 228 226 225 222 214 207 210 212 203 191 186 185 185 185 184 187 191 192 192 191 189 188 187 185 183 183 184 184 185 186 189 189 188 189 188 189 198 200 191 186 187 188 186 178 175 181 177 169 192 253 318 338 317 315 288 234 274 299 302 302 307 312 315 321 329 326 318 323 325 320 317 319 323
110 121 144 156 173 192 204 216 222 227 228 221 216 220 223 222 219 216 217 218 216 208 199 193 191 190 193 199 201 201 201 200 199 197 194 193 196 197 198 199 199 197 199 205 208 211 216 216 218 221 218 217 219 213 203 191 182 193 208 206 222 258 284 290 290 296 289 274 278 286 292 300 308 311 309 320 333 332 317 320 322 317 312 316 322
95 107 125 140 162 189 214 223 220 217 219 216 213 217 222 223 223 224 226 224 222 220 218 215 208 203 205 209 211 210 208 207 208 207 203 204 205 207 210 212 214 216 217 226 233 235 243 247 247 249 249 246 245 240 232 217 198 208 233 237 243 258 261 256 271 282 285 287 290 290 294 304 308 309 312 321 328 322 315 317 319 317 314 315 320
89 89 97 130 175 195 218 230 226 215 211 212 215 219 226 229 229 229 230 229 230 234 234 232 229 225 223 222 222 220 218 217 219 218 217 216 214 215 220 223 227 233 237 244 251 250 250 252 254 256 260 258 246 236 239 238 220 219 235 240 247 259 259 252 262 275 283 288 288 285 291 299 300 300 307 314 315 317 319 320 319 317 315 315 317
92 84 82 103 183 201 219 230 229 218 211 209 213 218 225 229 229 228 227 229 234 237 234 231 232 233 233 233 232 230 230 230 231 230 229 227 223 220 223 231 237 244 250 251 252 252 249 249 253 256 258 258 246 233 236 242 237 234 239 244 248 251 248 249 257 265 276 285 285 283 290 296 295 298 306 312 315 319 321 320 317 316 317 316 316
82 79 78 69 41 208 221 224 227 220 211 211 214 218 222 223 223 223 223 226 231 233 232 231 233 234 234 237 238 236 235 236 239 242 239 233 229 224 225 238 249 253 254 253 250 248 247 248 253 257 254 251 248 243 244 248 247 245 247 252 255 252 250 255 259 267 281 285 281 284 290 292 295 300 303 308 313 314 313 314 315 314 314 312 312
87 88 89 86 65 247 224 219 222 223 219 219 220 222 225 226 226 227 228 229 233 235 234 233 235 237 238 241 243 242 239 239 241 243 242 238 234 230 234 246 258 260 257 254 251 249 248 242 243 255 256 250 250 253 254 255 252 250 250 252 253 254 257 258 254 264 282 284 281 286 286 288 299 300 295 301 308 307 307 311 310 305 307 308 307
70 76 81 81 55 283 253 233 229 230 232 234 232 230 230 230 231 233 234 234 235 236 236 235 235 238 240 242 243 242 242 242 241 240 241 242 238 236 243 251 258 262 260 254 250 247 245 238 237 256 264 258 257 261 263 263 258 251 247 245 242 243 250 254 254 260 273 278 279 280 274 282 298 297 293 300 306 304 305 307 304 303 305 304 302
44 42 42 28 357 314 303 282 259 247 243 243 241 238 236 235 236 238 239 240 238 237 238 237 237 238 240 241 242 241 242 243 242 239 239 243 244 244 248 249 252 258 254 248 247 241 236 237 235 245 259 259 259 264 268 270 264 251 243 239 238 240 245 252 259 265 274 278 276 273 277 289 300 300 298 303 305 303 305 305 303 304 304 302 303
20 3 350 339 318 297 288 280 280 280 272 261 253 248 244 243 245 246 244 241 239 240 239 239 239 239 239 240 238 239 242 242 239 238 238 243 245 243 244 245 246 248 245 242 244 239 234 233 226 230 247 253 251 253 258 265 262 247 237 235 237 243 248 255 265 273 280 282 279 281 289 297 303 302 302 305 306 307 308 306 306 308 308 308 309
357 344 337 325 304 286 269 258 264 278 281 275 269 261 253 247 247 247 244 241 243 245 244 242 240 236 234 234 231 234 239 237 233 234 236 237 236 235 240 243 233 229 234 237 237 233 229 226 221 225 237 241 240 243 245 247 243 230 225 230 237 243 251 262 272 279 282 284 285 290 296 301 303 302 302 304 306 306 307 307 310 311 307 303 301
353 349 343 330 312 296 279 271 271 273 273 272 268 262 256 251 246 243 243 244 246 248 246 241 237 234 231 229 226 227 229 224 220 222 223 222 224 226 232 228 214 215 226 228 226 226 222 219 221 226 232 233 232 233 232 229 223 214 215 226 237 247 257 266 275 280 283 286 289 293 297 299 300 299 301 302 303 304 305 306 308 305 296 293 294
335 327 314 304 302 297 288 280 275 273 272 269 262 258 255 252 248 245 243 244 245 248 246 237 232 231 229 226 222 222 222 218 215 214 210 206 206 205 204 203 204 211 217 217 217 219 215 214 218 220 220 220 217 219 218 208 202 210 221 232 243 255 263 268 275 280 284 288 291 293 295 296 298 300 301 301 302 303 303 304 304 302 296 292 292
302 299 292 285 280 280 281 277 270 267 265 261 254 252 252 249 247 245 241 240 243 247 245 234 226 224 223 221 219 216 212 208 202 194 190 190 191 186 183 192 200 203 203 204 206 206 205 206 207 205 205 208 210 215 211 195 194 213 229 238 245 255 264 273 283 288 291 294 295 296 298 299 301 302 302 301 302 301 301 304 305 303 296 288 288
291 289 287 284 280 278 278 274 265 257 255 254 248 244 246 245 246 245 238 232 235 237 233 226 221 221 218 213 207 200 193 189 186 182 184 192 195 186 177 182 188 188 189 195 197 196 197 198 199 202 205 211 211 208 205 200 205 218 227 229 233 249 269 281 287 289 291 295 297 300 303 304 304 306 306 307 308 307 307 307 305 300 293 289 289
288 285 282 280 277 274 272 270 265 257 253 251 247 243 241 238 242 246 239 227 226 226 224 221 220 222 216 198 186 188 188 186 187 188 190 195 196 187 176 175 178 179 182 185 186 190 195 197 204 213 214 213 210 206 210 215 222 229 234 238 245 260 278 286 288 290 294 299 301 303 305 304 303 304 304 304 305 302 301 300 294 289 286 286 287
287 284 281 276 273 270 268 267 265 262 258 255 253 250 244 238 239 243 239 230 226 221 217 214 212 215 214 200 190 191 191 191 193 194 192 194 194 188 182 181 180 175 173 174 177 192 206 209 215 218 212 209 210 213 220 229 238 246 250 255 263 272 280 286 292 299 301 301 301 301 300 297 296 294 293 294 294 291 291 290 285 283 280 277 278
286 284 280 277 273 270 268 265 264 263 263 261 258 256 251 243 239 239 236 231 225 219 217 216 211 209 209 205 198 194 190 190 192 192 189 190 192 191 192 191 185 175 170 175 188 209 220 217 216 216 214 216 220 228 240 247 253 255 256 261 269 275 282 289 296 300 301 300 299 299 297 294 292 292 292 292 290 289 291 290 286 286 285 281 279
283 281 279 277 275 272 269 266 263 262 262 263 262 259 254 248 242 237 233 229 225 220 216 212 206 206 206 200 192 187 185 183 182 181 183 185 187 191 195 194 189 182 180 192 210 221 218 215 217 219 221 226 232 242 253 255 255 254 257 264 272 280 290 297 298 299 302 302 300 299 297 296 296 297 296 293 292 294 297 298 294 292 292 290 288
279 278 278 276 274 271 269 267 265 262 260 260 260 258 255 251 246 238 230 225 224 222 217 209 204 204 203 197 189 184 181 179 177 176 178 180 182 187 192 196 199 200 204 212 219 220 216 214 215 216 220 226 234 244 252 253 252 253 260 272 284 294 301 301 298 302 304 299 296 300 302 301 299 297 297 300 302 303 304 302 297 295 294 292 291
276 273 272 272 271 270 268 265 264 262 260 258 257 255 252 249 245 238 231 226 222 217 212 208 205 202 197 194 192 187 181 179 178 175 175 177 182 187 192 198 204 210 215 218 218 217 215 212 211 212 215 219 227 236 243 246 251 259 273 289 300 305 303 299 299 303 303 300 303 309 310 306 302 300 301 305 307 306 304 301 299 298 297 296 295
282 276 272 269 267 267 265 263 261 258 256 253 252 252 249 243 238 235 232 229 225 220 211 202 202 204 202 201 198 190 184 182 179 176 178 181 185 189 193 198 203 208 212 214 216 216 212 205 202 203 206 213 224 234 241 250 265 281 294 302 303 301 298 297 300 306 309 312 315 317 316 312 308 307 307 306 304 303 302 302 300 299 299 298 296
289 285 279 273 267 264 262 260 258 256 253 250 248 248 246 241 236 234 232 228 227 227 221 210 203 203 203 203 201 191 186 187 185 185 196 206 204 202 198 197 201 205 208 210 211 206 199 195 196 196 201 212 222 233 247 267 285 295 299 303 307 309 309 312 316 319 321 322 322 321 320 316 310 309 309 305 304 304 304 303 301 299 300 299 296
286 285 284 281 276 270 265 262 258 256 254 251 247 244 240 236 232 231 233 230 228 231 229 218 210 209 204 199 196 191 186 189 196 219 251 250 231 217 204 197 199 203 205 207 205 196 191 191 191 193 200 206 208 215 242 272 290 296 298 302 308 311 314 320 324 319 319 326 328 326 322 315 310 310 310 308 306 306 305 304 302 300 299 296 294
284 282 281 280 278 274 270 266 261 257 253 250 246 244 242 240 236 231 229 228 230 236 237 228 222 224 219 204 196 197 203 211 221 239 250 237 217 207 201 198 199 201 199 195 194 192 190 189 190 193 196 196 195 206 233 264 284 292 300 306 299 292 305 317 322 320 326 333 335 331 320 312 310 311 310 308 307 307 307 305 302 300 298 296 295
280 278 277 276 275 273 270 267 263 258 253 249 244 243 245 247 244 237 231 228 229 236 240 237 232 231 226 214 206 213 226 229 223 223 228 218 203 195 196 196 194 195 195 193 191 190 188 187 189 191 188 186 194 210 230 247 234 227 275 303 302 303 315 323 325 330 336 337 333 326 316 311 310 310 308 307 307 308 308 306 303 300 297 295 295
279 276 274 274 273 271 269 267 263 258 254 249 243 240 240 244 243 240 236 233 231 232 234 232 226 220 214 208 211 225 237 230 214 209 219 219 208 196 192 191 190 193 195 192 186 183 180 179 183 188 188 192 210 229 235 228 215 214 228 262 287 303 312 320 328 337 341 337 329 321 316 314 312 310 308 307 307 307 307 305 303 300 298 297 295
281 277 274 272 271 269 267 266 264 259 254 250 244 239 236 235 236 237 236 234 230 228 227 225 223 221 219 218 225 238 240 226 210 210 217 215 205 195 190 189 192 197 197 188 180 178 177 177 180 188 193 202 223 238 229 211 210 217 224 244 283 303 312 325 335 339 340 336 329 319 316 315 313 311 310 308 306 306 306 304 303 301 300 299 298
289 282 278 274 270 266 264 263 262 260 256 251 244 239 235 232 230 231 231 229 225 220 220 223 224 226 230 233 234 236 230 219 214 218 217 208 199 192 188 187 191 196 195 187 180 180 181 179 181 190 199 210 225 228 210 200 205 213 230 267 295 305 316 328 336 338 338 337 328 317 316 316 313 313 312 309 307 307 304 303 304 305 302 300 300
297 290 285 280 272 266 261 258 256 256 257 253 246 240 234 230 228 224 221 223 224 221 224 229 227 225 231 235 230 227 225 223 221 218 209 200 193 189 187 190 194 194 190 183 179 181 182 181 184 193 205 215 218 208 196 196 200 205 237 287 300 306 323 336 340 339 340 338 326 319 320 318 315 315 312 310 311 310 306 306 311 312 310 309 308
305 297 290 284 277 268 261 259 255 251 251 252 249 242 233 227 226 223 219 222 224 224 232 242 242 239 243 245 238 229 226 225 221 211 199 192 189 188 191 195 194 189 182 177 177 180 182 184 188 194 201 206 201 192 192 195 197 213 244 281 304 317 332 340 337 335 338 336 327 325 325 319 317 318 315 313 315 312 308 310 315 317 319 319 317
311 303 293 287 279 267 259 259 257 251 249 250 249 243 234 226 222 220 220 220 216 214 227 241 242 232 230 234 235 232 232 230 218 202 188 185 188 191 193 195 193 188 181 177 181 186 185 187 190 190 190 190 181 176 185 187 190 233 263 286 309 320 330 334 335 343 351 351 336 328 326 321 320 320 317 315 316 314 311 311 314 318 323 325 323
312 304 296 286 275 261 256 257 254 250 253 254 246 237 231 226 220 217 215 213 206 204 212 220 217 211 215 219 220 221 226 223 206 186 177 181 187 186 186 190 192 187 182 182 186 188 188 192 193 186 179 174 168 170 183 189 196 243 276 300 316 324 335 339 340 347 354 349 333 327 327 324 321 321 320 319 318 316 312 309 313 322 328 329 328
322 317 307 292 274 259 256 255 249 247 254 253 242 231 226 221 216 212 209 203 195 191 192 196 200 206 211 211 210 212 211 204 190 178 177 182 182 179 181 186 184 181 182 187 189 188 192 201 200 184 173 170 165 168 183 192 208 258 289 314 325 331 340 342 336 337 340 337 330 330 330 327 324 323 323 320 318 317 313 311 318 328 331 330 330
340 339 328 310 288 266 253 246 243 246 252 249 236 225 218 214 210 208 206 202 200 200 201 202 207 215 217 214 210 206 199 191 184 182 182 180 177 175 177 177 177 179 184 188 190 191 195 200 195 181 175 172 167 172 189 196 207 290 308 323 332 335 337 335 332 336 339 340 339 336 332 329 326 324 325 327 329 331 328 321 321 327 330 330 332
343 345 337 318 293 275 265 254 246 243 242 236 225 214 209 207 204 201 198 196 200 205 204 197 200 211 216 217 215 207 198 191 189 189 184 177 172 171 172 174 179 184 187 188 191 193 192 189 181 175 175 175 174 179 195 196 189 313 320 329 335 337 337 332 331 335 340 344 345 342 337 337 337 336 339 342 342 339 331 319 317 327 334 335 335
348 350 348 343 330 320 313 279 239 216 199 194 194 193 194 191 186 190 196 196 194 196 193 193 204 215 220 218 214 206 196 191 190 188 181 175 173 172 173 177 182 185 186 187 186 186 186 180 171 166 169 173 170 162 165 184 205 281 338 342 337 336 336 330 327 333 340 345 345 344 344 347 350 348 345 344 341 336 329 321 320 330 338 339 337
3 0 2 17 26 14 12 42 127 152 149 156 158 156 156 156 159 174 193 199 200 201 201 203 212 220 224 220 210 198 184 182 187 182 171 168 173 172 171 175 178 179 181 181 176 176 177 168 159 163 179 187 182 169 169 195 213 258 353 347 339 336 335 329 328 334 340 343 344 345 348 354 356 351 344 341 343 343 338 328 322 330 339 341 339
23 22 26 42 49 45 56 83 104 116 117 122 125 117 112 119 127 135 149 156 162 180 186 182 182 190 203 214 210 197 182 182 186 179 168 168 173 171 168 170 171 171 173 170 164 167 167 162 165 178 190 196 196 190 189 205 220 321 353 347 344 342 337 331 331 334 339 344 346 348 352 357 358 354 347 345 348 349 343 330 326 336 345 345 341
38 42 44 50 55 64 80 90 99 108 110 107 102 94 91 94 95 93 98 105 111 134 152 146 153 176 189 198 203 202 198 191 184 177 173 172 171 166 163 164 164 164 166 165 166 170 168 168 180 188 181 177 190 196 197 212 259 352 353 347 348 347 340 332 330 333 339 345 347 350 355 359 359 357 356 354 353 349 340 332 331 338 344 344 342
41 46 50 54 64 82 92 88 87 97 104 99 89 83 80 80 77 64 57 81 96 109 135 149 168 183 184 183 191 201 203 191 175 170 168 165 161 158 158 158 159 161 164 166 172 174 166 160 168 173 163 163 183 193 198 222 349 1 353 348 352 350 342 335 332 333 339 345 348 351 355 357 359 2 1 355 349 344 337 334 336 340 342 344 343
45 48 54 61 74 96 113 123 119 109 99 81 74 73 70 69 62 343 292 248 169 163 185 186 175 175 179 181 184 186 181 170 164 164 162 157 155 155 154 153 155 159 162 166 172 178 178 173 168 166 168 176 187 193 195 12 12 3 353 352 355 352 345 341 337 335 339 344 348 352 354 355 359 3 359 348 341 341 339 337 340 344 346 347 341
53 53 59 67 77 93 117 150 178 200 227 264 360 44 65 75 78 76 99 144 166 180 177 161 152 153 159 163 164 161 156 153 156 160 159 155 154 152 149 150 154 158 166 174 176 178 184 185 176 172 179 188 194 191 170 47 17 360 354 353 353 352 351 347 341 337 339 343 347 352 354 355 358 1 357 345 339 340 338 337 342 346 349 347 340
57 58 62 68 74 80 95 124 150 172 197 213 217 200 155 121 110 108 111 119 130 138 137 134 135 138 143 145 146 146 147 150 155 159 157 154 154 152 151 153 157 164 176 184 181 177 181 180 173 177 188 195 192 178 140 42 351 348 351 349 350 354 355 351 345 341 340 341 346 351 354 355 357 357 354 345 338 338 339 340 346 350 350 346 340
62 65 67 71 75 78 82 87 95 105 119 128 132 135 130 122 118 119 120 120 120 121 124 128 132 135 138 139 141 144 148 152 156 157 156 155 156 155 154 157 165 175 182 183 179 179 183 179 175 185 194 189 178 170 184 265 300 334 344 344 347 355 358 357 352 345 341 343 347 350 353 356 358 358 354 345 338 340 342 342 346 351 351 345 341
61 65 69 73 77 80 83 85 86 89 92 95 100 105 106 106 109 112 114 116 118 120 123 128 132 135 138 140 143 147 150 153 155 156 156 156 158 158 160 166 175 181 185 185 182 185 187 183 183 190 191 181 173 182 219 256 294 327 336 339 345 352 358 1 358 352 347 347 347 347 352 358 359 358 354 347 343 345 346 343 345 349 349 344 343
Height
1523 1524 1525 1525 1527 1529 1531 1532 1534 1536 1537 1538 1539 1540 1541 1542 1543 1543 1543 1545 1546 1547 1548 1549 1549 1550 1550 1551 1552 1553 1553 1554 1555 1555 1556 1557 1557 1558 1559 1559 1560 1560 1561 1562 1563 1564 1564 1565 1565 1565 1566 1567 1567 1568 1568 1568 1569 1569 1570 1570 1570 1570 1571 1572 1572 1572 1572 1571 1571 1571 1570 1570 1569 1569 1568 1567 1566 1566 1565 1564 1563 1562 1562 1561 1560
1522 1523 1524 1525 1526 1527 1529 1531 1533 1535 1536 1537 1538 1539 1541 1541 1542 1543 1543 1544 1545 1547 1548 1549 1549 1550 1550 1551 1552 1553 1554 1554 1555 1556 1556 1557 1557 1558 1558 1559 1560 1560 1561 1562 1563 1564 1564 1565 1565 1566 1566 1567 1568 1569 1569 1569 1570 1570 1570 1571 1570 1570 1571 1572 1572 1572 1571 1571 1570 1570 1569 1569 1570 1569 1568 1567 1566 1566 1565 1564 1563 1562 1562 1561 1559
1522 1522 1523 1524 1525 1526 1528 1530 1532 1534 1535 1536 1537 1538 1540 1540 1541 1542 1542 1543 1545 1546 1547 1548 1549 1550 1550 1551 1552 1553 1554 1554 1555 1556 1556 1557 1557 1558 1558 1559 1560 1560 1561 1562 1563 1563 1564 1565 1565 1566 1566 1566 1567 1568 1568 1569 1570 1570 1570 1570 1570 1570 1570 1571 1572 1572 1571 1571 1570 1570 1569 1569 1569 1568 1567 1566 1565 1565 1565 1564 1563 1562 1560 1560 1559
1521 1522 1522 1523 1524 1525 1527 1528 1531 1533 1534 1535 1536 1537 1538 1539 1540 1541 1542 1543 1544 1545 1546 1547 1548 1549 1550 1551 1552 1552 1553 1554 1555 1555 1556 1557 1557 1558 1558 1559 1559 1560 1561 1562 1563 1563 1564 1564 1565 1565 1566 1566 1566 1567 1567 1568 1569 1570 1569 1570 1569 1569 1569 1570 1571 1571 1571 1571 1571 1571 1570 1568 1568 1568 1567 1566 1565 1564 1564 1563 1562 1561 1560 1559 1558
1520 1522 1522 1522 1523 1524 1526 1527 1529 1531 1532 1533 1534 1535 1537 1538 1539 1540 1541 1542 1543 1544 1545 1546 1547 1548 1549 1550 1551 1552 1553 1553 1554 1555 1556 1556 1557 1558 1558 1559 1559 1560 1560 1561 1562 1562 1563 1564 1565 1565 1565 1566 1566 1567 1567 1567 1568 1569 1569 1570 1570 1569 1569 1570 1570 1570 1571 1570 1570 1569 1569 1569 1568 1567 1566 1566 1566 1565 1564 1563 1561 1560 1558 1557 1556
1520 1521 1522 1523 1523 1524 1525 1526 1528 1529 1530 1532 1533 1534 1535 1537 1538 1539 1540 1541 1542 1543 1544 1545 1546 1547 1548 1549 1550 1551 1552 1553 1554 1555 1555 1556 1557 1557 1558 1558 1559 1560 1560 1560 1561 1561 1562 1563 1563 1564 1564 1565 1565 1566 1566 1566 1567 1568 1569 1569 1569 1569 1569 1569 1569 1569 1570 1570 1569 1568 1568 1568 1567 1567 1565 1565 1565 1564 1563 1562 1561 1560 1558 1555 1554
1520 1521 1521 1522 1524 1524 1525 1526 1527 1528 1529 1530 1531 1532 1534 1535 1537 1538 1539 1540 1541 1542 1543 1544 1545 1546 1547 1548 1549 1550 1551 1552 1553 1553 1554 1555 1556 1556 1557 1558 1558 1559 1559 1560 1560 1561 1561 1562 1562 1563 1564 1564 1564 1565 1565 1565 1566 1567 1567 1568 1568 1568 1568 1569 1569 1569 1569 1569 1568 1568 1568 1567 1566 1566 1565 1563 1563 1563 1562 1560 1560 1559 1557 1555 1553
1520 1521 1521 1522 1523 1524 1525 1526 1526 1527 1528 1529 1530 1531 1532 1534 1535 1536 1538 1539 1540 1541 1542 1543 1543 1545 1545 1546 1547 1548 1549 1550 1551 1552 1553 1554 1554 1555 1556 1557 1557 1558 1558 1558 1559 1559 1560 1560 1561 1562 1562 1562 1563 1564 1564 1564 1565 1566 1566 1566 1567 1567 1567 1568 1568 1569 1569 1568 1568 1568 1568 1567 1566 1566 1565 1563 1562 1562 1560 1558 1557 1557 1555 1553 1552
1520 1521 1522 1523 1523 1524 1525 1525 1525 1526 1527 1528 1530 1530 1531 1532 1534 1535 1536 1537 1539 1539 1540 1541 1542 1543 1544 1545 1546 1546 1547 1548 1548 1549 1551 1552 1553 1553 1554 1555 1556 1556 1557 1557 1557 1558 1558 1559 1559 1560 1560 1560 1561 1561 1562 1563 1564 1564 1565 1564 1565 1565 1566 1567 1567 1568 1568 1567 1567 1567 1566 1566 1566 1565 1564 1562 1560 1559 1558 1556 1555 1554 1553 1551 1550
1520 1521 1522 1523 1523 1524 1524 1524 1525 1525 1526 1528 1529 1529 1530 1531 1532 1533 1534 1535 1537 1538 1539 1539 1540 1541 1542 1542 1543 1544 1545 1546 1546 1547 1548 1549 1550 1551 1552 1553 1554 1554 1555 1555 1555 1555 1556 1556 1557 1558 1558 1558 1559 1559 1560 1561 1561 1562 1562 1562 1563 1564 1565 1565 1566 1566 1566 1566 1566 1565 1565 1565 1564 1564 1563 1560 1558 1557 1555 1555 1553 1552 1551 1549 1548
1520 1521 1522 1523 1523 1523 1524 1524 1525 1525 1526 1527 1527 1528 1529 1529 1530 1531 1532 1533 1534 1535 1536 1537 1537 1538 1539 1540 1540 1542 1543 1544 1544 1545 1546 1546 1547 1548 1549 1550 1551 1552 1553 1553 1553 1553 1553 1554 1554 1555 1555 1556 1557 1557 1558 1559 1559 1560 1560 1560 1561 1562 1563 1564 1564 1564 1564 1564 1564 1564 1563 1563 1563 1563 1562 1559 1557 1556 1554 1553 1551 1550 1549 1547 1546
1521 1522 1522 1523 1523 1523 1524 1524 1524 1525 1525 1526 1526 1526 1527 1527 1528 1529 1530 1531 1532 1532 1533 1534 1534 1535 1536 1537 1538 1538 1540 1541 1542 1543 1543 1544 1545 1546 1547 1548 1549 1550 1550 1550 1550 1550 1551 1551 1551 1552 1552 1553 1554 1555 1556 1556 1557 1557 1558 1558 1559 1560 1561 1561 1562 1562 1562 1562 1563 1562 1562 1561 1561 1561 1560 1557 1555 1554 1552 1551 1550 1548 1547 1545 1543
1522 1522 1522 1523 1523 1523 1523 1523 1524 1524 1524 1524 1524 1525 1525 1525 1526 1527 1527 1528 1529 1529 1530 1531 1531 1532 1533 1534 1534 1535 1536 1537 1539 1540 1541 1541 1542 1543 1544 1545 1546 1547 1548 1548 1547 1548 1548 1549 1549 1550 1550 1551 1552 1553 1553 1554 1555 1555 1556 1556 1557 1558 1559 1559 1559 1560 1560 1560 1560 1560 1559 1559 1558 1558 1556 1554 1553 1552 1550 1549 1548 1546 1544 1543 1541
1522 1522 1522 1522 1522 1522 1523 1523 1523 1523 1523 1523 1523 1523 1524 1524 1524 1524 1525 1526 1526 1527 1527 1528 1528 1529 1529 1530 1531 1531 1532 1533 1535 1536 1537 1538 1539 1540 1541 1541 1542 1544 1545 1545 1545 1545 1546 1546 1547 1548 1548 1549 1550 1550 1551 1552 1553 1553 1554 1554 1555 1556 1556 1557 1557 1558 1558 1558 1558 1557 1556 1556 1555 1554 1553 1551 1550 1549 1548 1546 1545 1543 1541 1539 1537
1521 1521 1521 1521 1521 1522 1522 1522 1522 1522 1522 1522 1522 1522 1522 1522 1522 1522 1523 1523 1524 1524 1524 1525 1525 1526 1526 1527 1528 1528 1528 1529 1531 1532 1534 1535 1536 1537 1537 1538 1540 1543 1544 1543 1543 1543 1544 1544 1545 1546 1546 1547 1548 1549 1550 1550 1551 1551 1552 1552 1553 1554 1554 1555 1555 1555 1555 1555 1555 1554 1553 1553 1552 1551 1550 1549 1547 1546 1544 1542 1541 1538 1536 1534 1532
1521 1521 1521 1521 1521 1521 1521 1521 1521 1521 1521 1521 1521 1521 1521 1521 1521 1521 1520 1521 1521 1521 1522 1522 1522 1523 1523 1524 1525 1525 1525 1526 1528 1529 1530 1532 1533 1534 1535 1536 1538 1540 1542 1541 1541 1541 1542 1543 1543 1544 1545 1545 1546 1547 1548 1548 1549 1549 1550 1551 1551 1552 1553 1553 1553 1553 1553 1552 1552 1551 1550 1550 1549 1548 1547 1546 1544 1543 1541 1539 1537 1536 1534 1532 1531
1521 1520 1520 1520 1520 1520 1520 1520 1520 1520 1520 1520 1520 1520 1520 1520 1520 1519 1519 1519 1519 1519 1519 1519 1520 1520 1521 1521 1522 1523 1523 1524 1525 1526 1527 1529 1530 1531 1533 1534 1535 1537 1539 1539 1540 1540 1540 1541 1542 1542 1543 1544 1544 1545 1546 1547 1547 1548 1549 1549 1550 1550 1551 1551 1551 1551 1550 1550 1549 1548 1547 1546 1546 1545 1544 1543 1542 1540 1538 1536 1535 1534 1532 1530 1529
1520 1519 1519 1519 1518 1519 1519 1519 1519 1519 1519 1519 1519 1519 1518 1518 1518 1518 1517 1517 1517 1517 1517 1517 1517 1518 1518 1519 1520 1520 1521 1522 1523 1524 1526 1527 1529 1530 1531 1532 1533 1535 1537 1537 1538 1538 1539 1540 1540 1541 1542 1543 1543 1544 1544 1545 1546 1547 1547 1548 1549 1549 1548 1549 1548 1548 1547 1547 1546 1545 1544 1543 1542 1541 1540 1539 1539 1537 1535 1534 1532 1531 1530 1528 1526
1518 1518 1518 1517 1517 1517 1517 1517 1517 1517 1517 1517 1517 1517 1517 1517 1517 1516 1516 1515 1515 1515 1516 1516 1516 1516 1516 1517 1518 1518 1519 1520 1521 1523 1525 1526 1528 1529 1531 1531 1532 1533 1535 1535 1536 1537 1538 1539 1539 1540 1541 1541 1542 1543 1543 1544 1545 1546 1546 1547 1548 1547 1546 1546 1546 1545 1544 1544 1543 1542 1541 1540 1539 1538 1537 1535 1535 1534 1532 1531 1529 1528 1527 1525 1524
1516 1516 1516 1516 1516 1516 1516 1516 1516 1515 1515 1515 1515 1515 1515 1515 1515 1514 1514 1514 1513 1513 1514 1515 1515 1514 1514 1515 1516 1517 1518 1518 1520 1522 1524 1525 1526 1528 1530 1530 1531 1532 1533 1534 1535 1536 1536 1537 1538 1539 1540 1540 1541 1541 1542 1543 1543 1544 1545 1546 1547 1546 1544 1544 1544 1543 1542 1542 1541 1540 1539 1537 1536 1535 1533 1532 1530 1529 1528 1527 1526 1525 1524 1523 1522
1514 1514 1514 1514 1514 1514 1514 1514 1513 1513 1513 1513 1513 1513 1513 1513 1513 1513 1513 1512 1511 1511 1512 1513 1514 1513 1513 1514 1515 1516 1517 1518 1519 1521 1522 1524 1525 1527 1528 1529 1530 1531 1532 1533 1534 1534 1535 1536 1536 1537 1538 1538 1539 1540 1541 1541 1542 1542 1543 1544 1544 1543 1542 1541 1541 1541 1540 1539 1539 1538 1537 1536 1534 1533 1532 1530 1529 1527 1526 1524 1523 1522 1522 1521 1520
1510 1510 1510 1511 1511 1511 1511 1511 1511 1511 1511 1511 1511 1510 1510 1510 1510 1510 1511 1511 1510 1509 1510 1511 1512 1513 1513 1513 1514 1515 1516 1517 1518 1520 1521 1522 1524 1525 1527 1528 1529 1530 1531 1532 1532 1533 1533 1534 1535 1535 1536 1537 1538 1539 1539 1540 1540 1540 1541 1541 1541 1541 1540 1539 1539 1538 1538 1538 1537 1536 1535 1534 1533 1532 1531 1529 1527 1525 1523 1522 1521 1519 1518 1517 1516
1507 1507 1507 1507 1507 1508 1508 1508 1508 1508 1508 1508 1508 1508 1508 1508 1508 1508 1509 1509 1509 1508 1508 1509 1510 1511 1512 1513 1513 1514 1515 1516 1518 1519 1520 1521 1522 1523 1525 1526 1527 1529 1530 1530 1530 1530 1531 1532 1533 1534 1535 1536 1536 1537 1538 1538 1538 1538 1538 1538 1538 1538 1538 1537 1537 1537 1536 1535 1535 1534 1533 1532 1531 1530 1528 1526 1524 1522 1519 1518 1516 1514 1512 1511 1509
1503 1503 1503 1503 1504 1504 1504 1504 1505 1505 1504 1505 1505 1505 1505 1505 1505 1506 1506 1507 1507 1507 1507 1507 1508 1509 1510 1511 1511 1512 1513 1515 1516 1517 1518 1519 1520 1521 1523 1524 1526 1527 1528 1528 1528 1529 1530 1531 1532 1533 1533 1534 1535 1535 1536 1536 1536 1536 1536 1536 1536 1536 1536 1536 1535 1535 1534 1533 1533 1532 1531 1530 1528 1526 1525 1523 1520 1517 1515 1513 1511 1509 1507 1506 1504
1498 1498 1498 1499 1499 1499 1500 1500 1500 1500 1501 1501 1501 1501 1502 1502 1502 1503 1503 1504 1505 1505 1505 1506 1506 1506 1507 1508 1509 1510 1511 1512 1514 1515 1516 1517 1518 1519 1521 1522 1524 1525 1526 1526 1527 1528 1528 1529 1530 1531 1532 1532 1533 1533 1534 1534 1534 1534 1534 1534 1534 1534 1534 1534 1533 1533 1532 1532 1531 1530 1529 1527 1525 1523 1521 1518 1515 1513 1511 1510 1509 1507 1505 1503 1501
1493 1493 1493 1494 1494 1495 1495 1495 1495 1496 1497 1497 1497 1497 1498 1498 1498 1499 1499 1501 1502 1502 1503 1504 1505 1506 1506 1506 1507 1508 1509 1510 1511 1512 1514 1515 1516 1518 1519 1520 1522 1523 1524 1525 1526 1526 1527 1528 1528 1529 1530 1530 1531 1532 1532 1532 1532 1532 1532 1532 1532 1532 1532 1531 1531 1531 1531 1530 1529 1527 1526 1524 1522 1520 1517 1515 1513 1512 1510 1509 1507 1505 1503 1501 1499
1488 1488 1488 1488 1489 1489 1490 1490 1490 1491 1492 1493 1493 1493 1493 1494 1494 1494 1495 1496 1497 1498 1499 1500 1502 1504 1504 1504 1505 1506 1507 1508 1509 1510 1512 1513 1514 1515 1517 1518 1520 1521 1522 1524 1524 1525 1525 1526 1527 1527 1528 1528 1529 1530 1530 1530 1530 1530 1530 1530 1530 1530 1529 1529 1529 1528 1528 1527 1526 1524 1523 1521 1519 1518 1516 1514 1512 1510 1509 1506 1504 1502 1501 1499 1497
1486 1484 1484 1483 1483 1484 1484 1485 1485 1486 1486 1487 1488 1489 1489 1489 1490 1490 1490 1492 1493 1493 1494 1496 1499 1501 1501 1501 1502 1503 1504 1506 1507 1508 1510 1511 1512 1513 1515 1516 1518 1519 1520 1521 1522 1523 1524 1524 1525 1525 1526 1527 1527 1528 1528 1529 1529 1529 1528 1528 1528 1527 1527 1527 1527 1526 1525 1524 1523 1521 1520 1519 1517 1516 1514 1512 1510 1508 1506 1504 1502 1500 1499 1497 1495
1483 1481 1481 1480 1480 1479 1480 1480 1481 1481 1482 1482 1483 1484 1484 1485 1486 1487 1487 1488 1489 1489 1491 1494 1496 1496 1497 1499 1500 1501 1502 1503 1505 1507 1508 1510 1511 1512 1513 1514 1515 1517 1518 1519 1520 1521 1521 1522 1523 1523 1524 1525 1526 1527 1528 1528 1527 1527 1526 1526 1526 1526 1526 1526 1525 1525 1524 1522 1520 1519 1517 1516 1515 1513 1511 1509 1507 1506 1504 1502 1500 1498 1497 1495 1493
1479 1478 1478 1477 1477 1477 1476 1476 1477 1477 1478 1478 1479 1479 1479 1479 1481 1483 1483 1484 1484 1485 1488 1491 1493 1494 1496 1499 1500 1500 1501 1502 1503 1505 1507 1509 1510 1511 1512 1513 1514 1515 1516 1518 1519 1519 1520 1520 1521 1522 1523 1524 1525 1526 1526 1526 1526 1525 1525 1524 1525 1525 1524 1524 1524 1523 1521 1519 1518 1517 1516 1515 1513 1510 1509 1507 1505 1503 1501 1500 1498 1496 1495 1494 1492
1476 1475 1474 1474 1473 1473 1473 1473 1473 1473 1473 1474 1475 1475 1475 1475 1476 1478 1479 1480 1481 1482 1484 1487 1488 1490 1494 1497 1499 1499 1500 1501 1501 1502 1505 1508 1509 1509 1510 1512 1513 1514 1515 1516 1517 1518 1519 1520 1521 1522 1523 1524 1525 1525 1525 1524 1524 1524 1524 1524 1524 1523 1523 1522 1522 1520 1519 1517 1516 1515 1514 1513 1510 1508 1507 1504 1502 1501 1499 1498 1496 1495 1493 1492 1490
1472 1471 1470 1470 1469 1469 1469 1469 1468 1468 1469 1469 1470 1471 1471 1471 1472 1473 1475 1476 1478 1479 1481 1483 1485 1487 1490 1493 1495 1495 1496 1498 1499 1500 1503 1505 1506 1507 1509 1510 1511 1513 1514 1515 1516 1517 1518 1519 1520 1521 1522 1523 1523 1523 1523 1523 1523 1523 1523 1523 1523 1523 1522 1521 1520 1518 1517 1516 1514 1513 1512 1511 1509 1507 1505 1503 1501 1499 1497 1496 1495 1493 1492 1490 1488
1467 1466 1465 1465 1465 1464 1464 1464 1464 1464 1464 1465 1466 1466 1467 1468 1469 1469 1470 1472 1475 1476 1478 1480 1482 1484 1486 1489 1491 1491 1492 1495 1497 1498 1500 1502 1504 1505 1507 1508 1510 1511 1512 1514 1515 1516 1517 1518 1519 1520 1521 1521 1521 1521 1521 1521 1521 1521 1522 1522 1522 1522 1521 1519 1518 1517 1516 1514 1513 1512 1511 1509 1507 1505 1503 1502 1500 1498 1496 1494 1493 1491 1489 1488 1486
1463 1462 1461 1460 1460 1459 1460 1460 1460 1460 1461 1461 1461 1462 1463 1465 1466 1467 1467 1469 1471 1473 1475 1477 1479 1481 1482 1484 1486 1487 1489 1492 1493 1495 1497 1499 1501 1503 1504 1506 1508 1510 1511 1513 1514 1514 1515 1517 1517 1518 1519 1519 1519 1520 1520 1520 1520 1520 1520 1521 1521 1520 1519 1518 1517 1516 1515 1513 1512 1511 1510 1508 1506 1504 1502 1500 1498 1496 1494 1492 1491 1489 1488 1486 1484
1459 1457 1456 1456 1455 1455 1455 1456 1456 1457 1457 1457 1458 1459 1460 1461 1463 1464 1465 1466 1468 1470 1472 1473 1475 1477 1479 1480 1482 1484 1486 1488 1490 1491 1492 1495 1498 1500 1502 1504 1506 1508 1510 1512 1513 1513 1513 1514 1515 1516 1517 1517 1518 1518 1518 1519 1519 1519 1519 1519 1519 1519 1518 1517 1516 1515 1513 1512 1511 1510 1508 1506 1505 1503 1501 1499 1497 1495 1493 1491 1489 1487 1486 1484 1482
1455 1453 1451 1451 1450 1450 1450 1451 1452 1452 1453 1454 1454 1455 1456 1458 1460 1461 1463 1464 1466 1468 1469 1470 1472 1475 1476 1477 1479 1481 1483 1485 1486 1487 1489 1492 1495 1497 1499 1502 1504 1506 1508 1510 1511 1511 1511 1512 1513 1515 1515 1515 1516 1517 1517 1517 1518 1518 1518 1518 1517 1517 1516 1515 1515 1513 1511 1510 1510 1509 1507 1505 1503 1501 1499 1497 1495 1493 1491 1489 1487 1485 1484 1482 1480
1451 1449 1447 1446 1446 1446 1447 1447 1448 1449 1449 1450 1450 1452 1453 1455 1457 1458 1460 1462 1464 1465 1466 1467 1469 1471 1472 1474 1477 1480 1482 1483 1484 1485 1487 1491 1494 1496 1498 1501 1503 1504 1506 1508 1508 1509 1510 1511 1512 1513 1513 1514 1515 1515 1516 1516 1517 1517 1516 1516 1516 1516 1515 1514 1513 1512 1510 1509 1509 1508 1506 1504 1503 1500 1498 1496 1494 1492 1490 1487 1485 1483 1482 1480 1478
1449 1446 1444 1443 1443 1444 1444 1444 1444 1445 1446 1446 1447 1448 1450 1452 1454 1456 1459 1460 1462 1463 1464 1465 1467 1469 1470 1471 1474 1477 1481 1482 1483 1484 1485 1488 1492 1495 1497 1499 1501 1503 1504 1505 1506 1507 1509 1510 1511 1512 1512 1512 1513 1514 1515 1515 1516 1515 1515 1515 1515 1514 1514 1513 1512 1510 1509 1509 1509 1507 1506 1504 1502 1500 1497 1495 1492 1490 1488 1486 1484 1482 1480 1478 1476
1447 1444 1442 1441 1441 1442 1442 1442 1443 1443 1444 1444 1444 1446 1448 1450 1452 1454 1457 1459 1460 1462 1463 1465 1466 1468 1469 1471 1472 1475 1477 1478 1480 1482 1484 1486 1490 1493 1496 1498 1500 1501 1502 1503 1504 1506 1508 1509 1509 1510 1511 1511 1512 1513 1513 1514 1514 1514 1514 1514 1514 1513 1513 1512 1511 1510 1509 1509 1508 1506 1504 1502 1500 1498 1496 1493 1491 1488 1486 1484 1482 1480 1478 1476 1475
1447 1444 1442 1441 1440 1440 1440 1441 1441 1442 1442 1442 1443 1444 1446 1448 1450 1453 1455 1457 1459 1460 1462 1464 1466 1468 1469 1471 1472 1473 1474 1476 1478 1481 1482 1484 1488 1492 1495 1497 1498 1499 1500 1502 1503 1505 1507 1508 1509 1509 1509 1509 1510 1511 1512 1513 1513 1513 1513 1513 1513 1512 1512 1511 1511 1510 1508 1507 1506 1505 1503 1501 1499 1497 1494 1492 1489 1486 1484 1482 1481 1479 1477 1475 1473
1448 1445 1443 1442 1440 1440 1440 1440 1440 1440 1441 1441 1442 1444 1446 1447 1449 1452 1454 1456 1457 1459 1462 1464 1466 1467 1468 1470 1471 1472 1473 1475 1476 1478 1481 1484 1487 1491 1494 1495 1496 1498 1499 1501 1503 1505 1506 1507 1508 1508 1508 1508 1509 1510 1511 1512 1512 1512 1512 1512 1511 1511 1511 1510 1509 1508 1507 1506 1505 1503 1501 1499 1497 1495 1492 1490 1487 1485 1483 1481 1480 1478 1476 1474 1472
1448 1445 1443 1441 1441 1440 1440 1439 1439 1440 1440 1442 1443 1444 1445 1446 1448 1451 1453 1454 1456 1458 1460 1462 1463 1465 1467 1469 1471 1472 1472 1473 1474 1477 1481 1484 1487 1489 1491 1493 1495 1497 1499 1501 1503 1504 1505 1506 1507 1507 1507 1507 1508 1510 1511 1511 1511 1511 1511 1511 1510 1510 1510 1509 1509 1507 1506 1505 1503 1501 1499 1497 1495 1493 1490 1488 1486 1484 1482 1480 1479 1477 1475 1473 1471
1448 1446 1444 1442 1442 1441 1440 1440 1440 1441 1442 1443 1444 1445 1446 1446 1448 1450 1452 1453 1455 1457 1458 1460 1462 1464 1466 1468 1470 1470 1471 1472 1473 1475 1480 1484 1486 1488 1490 1492 1494 1496 1499 1501 1502 1504 1505 1506 1507 1506 1506 1506 1507 1509 1510 1510 1510 1510 1510 1510 1509 1509 1508 1508 1507 1506 1505 1504 1502 1500 1498 1495 1493 1491 1490 1488 1486 1483 1481 1479 1478 1476 1474 1472 1470
1448 1447 1445 1444 1443 1443 1442 1442 1443 1443 1444 1445 1446 1446 1447 1448 1449 1450 1451 1453 1454 1456 1457 1458 1461 1463 1465 1466 1468 1469 1470 1471 1473 1475 1479 1483 1486 1488 1489 1491 1494 1496 1499 1500 1502 1503 1504 1505 1505 1505 1505 1506 1506 1507 1508 1509 1509 1509 1509 1509 1508 1508 1507 1506 1506 1505 1504 1503 1501 1499 1497 1494 1492 1491 1489 1487 1485 1483 1481 1479 1477 1475 1473 1471 1469
1450 1448 1447 1446 1446 1445 1445 1445 1445 1445 1446 1447 1447 1448 1449 1450 1451 1451 1452 1454 1455 1456 1457 1458 1460 1462 1463 1465 1468 1470 1471 1472 1475 1479 1482 1484 1487 1489 1490 1492 1494 1496 1498 1500 1501 1502 1503 1503 1503 1504 1505 1506 1506 1507 1507 1508 1508 1508 1508 1508 1507 1506 1506 1505 1505 1504 1503 1501 1500 1498 1496 1494 1492 1490 1488 1486 1484 1482 1480 1479 1477 1474 1472 1470 1468
1451 1450 1449 1448 1448 1447 1447 1448 1448 1448 1448 1449 1449 1450 1451 1452 1452 1453 1453 1455 1456 1457 1458 1459 1460 1461 1463 1465 1467 1470 1471 1473 1477 1482 1484 1486 1488 1490 1491 1493 1494 1496 1498 1499 1500 1501 1502 1503 1503 1503 1504 1505 1505 1506 1507 1507 1507 1507 1507 1507 1506 1505 1505 1504 1503 1503 1502 1500 1499 1497 1495 1493 1491 1489 1487 1485 1483 1482 1480 1478 1476 1474 1472 1470 1468
1453 1452 1450 1450 1449 1449 1449 1449 1450 1450 1450 1450 1451 1452 1453 1453 1453 1453 1454 1456 1457 1457 1458 1459 1460 1461 1463 1464 1467 1469 1471 1474 1478 1483 1485 1487 1489 1490 1491 1493 1495 1496 1497 1498 1499 1500 1501 1501 1502 1502 1503 1504 1505 1506 1506 1506 1506 1506 1506 1506 1505 1505 1504 1503 1502 1502 1501 1499 1498 1496 1494 1492 1490 1488 1486 1485 1484 1482 1480 1477 1475 1473 1471 1469 1467
1456 1454 1453 1452 1451 1451 1451 1451 1451 1451 1451 1451 1452 1453 1453 1454 1455 1455 1456 1456 1457 1457 1458 1459 1460 1461 1463 1465 1468 1470 1472 1475 1480 1484 1487 1488 1490 1491 1492 1493 1495 1496 1497 1498 1499 1500 1500 1501 1501 1502 1503 1504 1505 1505 1505 1505 1506 1506 1505 1505 1504 1504 1503 1502 1501 1500 1500 1498 1497 1496 1494 1492 1490 1488 1486 1485 1484 1482 1480 1477 1475 1473 1470 1469 1467
1459 1457 1455 1454 1454 1453 1453 1452 1452 1452 1453 1453 1453 1453 1454 1454 1455 1456 1457 1457 1458 1458 1459 1460 1462 1463 1465 1468 1470 1473 1476 1479 1482 1486 1488 1489 1490 1491 1492 1494 1495 1496 1497 1498 1498 1499 1500 1501 1501 1502 1503 1504 1504 1504 1505 1505 1505 1505 1505 1505 1504 1503 1502 1501 1500 1499 1499 1498 1496 1495 1493 1491 1490 1488 1486 1485 1484 1482 1480 1477 1475 1472 1470 1469 1468
1463 1461 1459 1458 1457 1456 1455 1455 1455 1454 1455 1455 1455 1455 1455 1455 1456 1457 1457 1458 1459 1460 1461 1463 1465 1467 1469 1471 1474 1476 1479 1482 1484 1486 1488 1489 1490 1492 1493 1494 1495 1496 1497 1498 1498 1499 1500 1500 1501 1502 1503 1503 1504 1504 1504 1504 1504 1504 1504 1504 1503 1503 1502 1501 1499 1499 1498 1497 1496 1495 1493 1491 1490 1488 1487 1486 1484 1482 1480 1477 1475 1473 1471 1469 1468
1467 1465 1463 1462 1461 1460 1459 1459 1458 1458 1458 1458 1458 1458 1458 1458 1459 1459 1460 1461 1462 1464 1465 1467 1469 1471 1473 1475 1477 1479 1482 1484 1485 1487 1488 1489 1490 1492 1493 1494 1495 1496 1497 1497 1498 1498 1499 1500 1501 1502 1502 1503 1503 1503 1504 1504 1504 1504 1504 1503 1503 1502 1501 1500 1499 1498 1497 1496 1495 1494 1493 1491 1490 1488 1487 1485 1484 1481 1479 1477 1475 1473 1472 1470 1468